Time,TemperatureF,DewpointF,PressureIn,WindDirection,WindDirectionDegrees,WindSpeedMPH,WindSpeedGustMPH,Humidity,HourlyPrecipIn,Conditions,Clouds,dailyrainin,SoftwareType,DateUTC
2013-12-05 00:03:00,30.7,25.0,30.03,North,355,16.0,16.0,79,0.00,,---,0.00,VWS V14.01,2013-12-05 06:03:00,
2013-12-05 00:08:00,30.7,25.0,30.03,NNW,344,8.0,9.0,79,0.00,,---,0.00,VWS V14.01,2013-12-05 06:08:00,
2013-12-05 00:13:00,30.7,25.0,30.03,NNW,336,14.0,14.0,79,0.00,,---,0.00,VWS V14.01,2013-12-05 06:13:00,
2013-12-05 00:18:00,30.7,25.0,30.03,NNW,340,14.0,14.0,79,0.00,,---,0.00,VWS V14.01,2013-12-05 06:18:00,
2013-12-05 00:23:00,30.6,24.6,30.04,NNW,344,14.0,14.0,78,0.00,,---,0.00,VWS V14.01,2013-12-05 06:23:00,
2013-12-05 00:28:00,30.6,24.3,30.04,NW,323,16.0,16.0,77,0.00,,---,0.00,VWS V14.01,2013-12-05 06:28:00,
2013-12-05 00:33:00,30.6,24.0,30.05,NNW,346,18.0,18.0,76,0.00,,---,0.00,VWS V14.01,2013-12-05 06:33:00,
2013-12-05 00:38:00,30.6,23.6,30.04,NW,319,20.0,20.0,75,0.00,,---,0.00,VWS V14.01,2013-12-05 06:38:00,
2013-12-05 00:43:00,30.6,23.3,30.05,NNW,327,12.0,12.0,74,0.00,,---,0.00,VWS V14.01,2013-12-05 06:43:00,
2013-12-05 00:48:00,30.6,23.3,30.05,NNW,330,10.0,10.0,74,0.00,,---,0.00,VWS V14.01,2013-12-05 06:48:00,
2013-12-05 00:53:00,30.5,22.9,30.05,NNW,344,10.0,10.0,73,0.00,,---,0.00,VWS V14.01,2013-12-05 06:53:00,
2013-12-05 00:58:00,30.5,22.6,30.06,NNW,346,22.0,22.0,72,0.00,,---,0.00,VWS V14.01,2013-12-05 06:58:00,
2013-12-05 01:03:00,30.5,22.2,30.06,NW,325,10.0,10.0,71,0.00,,---,0.00,VWS V14.01,2013-12-05 07:03:00,
2013-12-05 01:08:00,30.4,21.8,30.06,NNW,345,12.0,12.0,70,0.00,,---,0.00,VWS V14.01,2013-12-05 07:08:00,
2013-12-05 01:13:00,30.3,21.4,30.06,North,355,16.0,16.0,69,0.00,,---,0.00,VWS V14.01,2013-12-05 07:13:00,
2013-12-05 01:18:00,30.3,21.7,30.06,NNW,344,8.0,8.0,70,0.00,,---,0.00,VWS V14.01,2013-12-05 07:18:00,
2013-12-05 01:23:00,30.3,21.7,30.06,North,11,6.0,6.0,70,0.00,,---,0.00,VWS V14.01,2013-12-05 07:23:00,
2013-12-05 01:28:00,30.3,21.4,30.07,NNW,337,22.0,22.0,69,0.00,,---,0.00,VWS V14.01,2013-12-05 07:28:00,
2013-12-05 01:33:00,30.2,20.2,30.06,NNW,348,14.0,14.0,66,0.00,,---,0.00,VWS V14.01,2013-12-05 07:33:00,
2013-12-05 01:38:00,30.1,20.1,30.07,NNW,338,8.0,8.0,66,0.00,,---,0.00,VWS V14.01,2013-12-05 07:38:00,
2013-12-05 01:43:00,30.1,20.1,30.07,North,349,28.0,28.0,66,0.00,,---,0.00,VWS V14.01,2013-12-05 07:43:00,
2013-12-05 01:48:00,30.0,19.7,30.08,North,5,10.0,10.0,65,0.00,,---,0.00,VWS V14.01,2013-12-05 07:48:00,
2013-12-05 01:53:00,30.0,20.0,30.08,North,355,18.0,18.0,66,0.00,,---,0.00,VWS V14.01,2013-12-05 07:53:00,
2013-12-05 01:58:00,30.0,20.0,30.09,NNW,329,16.0,16.0,66,0.00,,---,0.00,VWS V14.01,2013-12-05 07:58:00,
2013-12-05 02:03:00,30.0,19.7,30.08,North,360,20.0,20.0,65,0.00,,---,0.00,VWS V14.01,2013-12-05 08:03:00,
2013-12-05 02:08:00,30.0,19.7,30.09,NNW,327,12.0,12.0,65,0.00,,---,0.00,VWS V14.01,2013-12-05 08:08:00,
2013-12-05 02:13:00,29.9,19.2,30.09,NNW,342,24.0,24.0,64,0.00,,---,0.00,VWS V14.01,2013-12-05 08:13:00,
2013-12-05 02:18:00,29.9,19.2,30.10,North,5,24.0,24.0,64,0.00,,---,0.00,VWS V14.01,2013-12-05 08:18:00,
2013-12-05 02:23:00,29.8,19.1,30.10,North,360,14.0,14.0,64,0.00,,---,0.00,VWS V14.01,2013-12-05 08:23:00,
2013-12-05 02:28:00,29.8,19.1,30.10,North,350,6.0,7.0,64,0.00,,---,0.00,VWS V14.01,2013-12-05 08:28:00,
2013-12-05 02:33:00,29.8,19.1,30.10,NW,318,18.0,18.0,64,0.00,,---,0.00,VWS V14.01,2013-12-05 08:33:00,
2013-12-05 02:38:00,29.8,19.1,30.10,NW,320,22.0,22.0,64,0.00,,---,0.00,VWS V14.01,2013-12-05 08:38:00,
2013-12-05 02:43:00,29.8,19.1,30.10,NNE,17,10.0,12.0,64,0.00,,---,0.00,VWS V14.01,2013-12-05 08:43:00,
2013-12-05 02:48:00,29.7,18.7,30.10,North,5,14.0,14.0,63,0.00,,---,0.00,VWS V14.01,2013-12-05 08:48:00,
2013-12-05 02:53:00,29.7,19.0,30.10,North,9,6.0,6.0,64,0.00,,---,0.00,VWS V14.01,2013-12-05 08:53:00,
2013-12-05 02:58:00,29.7,19.0,30.10,NNW,333,10.0,10.0,64,0.00,,---,0.00,VWS V14.01,2013-12-05 08:58:00,
2013-12-05 03:03:00,29.7,19.0,30.10,North,360,10.0,10.0,64,0.00,,---,0.00,VWS V14.01,2013-12-05 09:03:00,
2013-12-05 03:08:00,29.6,18.9,30.11,NNW,348,16.0,16.0,64,0.00,,---,0.00,VWS V14.01,2013-12-05 09:08:00,
2013-12-05 03:13:00,29.6,18.9,30.11,NNW,335,10.0,10.0,64,0.00,,---,0.00,VWS V14.01,2013-12-05 09:13:00,
2013-12-05 03:18:00,29.6,18.9,30.12,NNW,344,20.0,20.0,64,0.00,,---,0.00,VWS V14.01,2013-12-05 09:18:00,
2013-12-05 03:23:00,29.6,18.9,30.12,North,5,10.0,10.0,64,0.00,,---,0.00,VWS V14.01,2013-12-05 09:23:00,
2013-12-05 03:28:00,29.6,18.9,30.12,NNW,345,8.0,8.0,64,0.00,,---,0.00,VWS V14.01,2013-12-05 09:28:00,
2013-12-05 03:33:00,29.6,18.9,30.13,NNW,338,18.0,18.0,64,0.00,,---,0.00,VWS V14.01,2013-12-05 09:33:00,
2013-12-05 03:38:00,29.6,19.3,30.13,North,355,16.0,16.0,65,0.00,,---,0.00,VWS V14.01,2013-12-05 09:38:00,
2013-12-05 03:43:00,29.6,18.9,30.13,NNW,340,16.0,16.0,64,0.00,,---,0.00,VWS V14.01,2013-12-05 09:43:00,
2013-12-05 03:48:00,29.5,19.2,30.13,NNW,348,8.0,8.0,65,0.00,,---,0.00,VWS V14.01,2013-12-05 09:48:00,
2013-12-05 03:53:00,29.5,18.8,30.13,North,360,18.0,18.0,64,0.00,,---,0.00,VWS V14.01,2013-12-05 09:53:00,
2013-12-05 03:58:00,29.4,18.7,30.13,North,5,16.0,16.0,64,0.00,,---,0.00,VWS V14.01,2013-12-05 09:58:00,
2013-12-05 04:03:00,29.4,18.7,30.13,NNW,344,18.0,18.0,64,0.00,,---,0.00,VWS V14.01,2013-12-05 10:03:00,
2013-12-05 04:08:00,29.4,18.7,30.14,NNW,337,14.0,14.0,64,0.00,,---,0.00,VWS V14.01,2013-12-05 10:08:00,
2013-12-05 04:13:00,29.3,18.6,30.14,NNW,327,14.0,14.0,64,0.00,,---,0.00,VWS V14.01,2013-12-05 10:13:00,
2013-12-05 04:18:00,29.3,18.6,30.14,NNW,345,18.0,18.0,64,0.00,,---,0.00,VWS V14.01,2013-12-05 10:18:00,
2013-12-05 04:23:00,29.3,18.6,30.14,North,349,4.0,4.0,64,0.00,,---,0.00,VWS V14.01,2013-12-05 10:23:00,
2013-12-05 04:28:00,29.4,18.7,30.14,North,351,16.0,16.0,64,0.00,,---,0.00,VWS V14.01,2013-12-05 10:28:00,
2013-12-05 04:33:00,29.3,18.3,30.15,NW,325,10.0,10.0,63,0.00,,---,0.00,VWS V14.01,2013-12-05 10:33:00,
2013-12-05 04:38:00,29.2,17.8,30.16,NNW,338,10.0,10.0,62,0.00,,---,0.00,VWS V14.01,2013-12-05 10:38:00,
2013-12-05 04:43:00,29.2,17.8,30.16,North,355,26.0,26.0,62,0.00,,---,0.00,VWS V14.01,2013-12-05 10:43:00,
2013-12-05 04:48:00,29.0,17.6,30.15,NNW,347,6.0,7.0,62,0.00,,---,0.00,VWS V14.01,2013-12-05 10:48:00,
2013-12-05 04:53:00,29.0,17.2,30.15,North,351,22.0,22.0,61,0.00,,---,0.00,VWS V14.01,2013-12-05 10:53:00,
2013-12-05 04:58:00,28.7,17.0,30.15,NNW,345,22.0,22.0,61,0.00,,---,0.00,VWS V14.01,2013-12-05 10:58:00,
2013-12-05 05:03:00,28.5,16.8,30.16,North,349,10.0,15.0,61,0.00,,---,0.00,VWS V14.01,2013-12-05 11:03:00,
2013-12-05 05:08:00,28.2,16.5,30.16,NNW,340,24.0,24.0,61,0.00,,---,0.00,VWS V14.01,2013-12-05 11:08:00,
2013-12-05 05:13:00,28.1,16.4,30.17,North,5,20.0,20.0,61,0.00,,---,0.00,VWS V14.01,2013-12-05 11:13:00,
2013-12-05 05:18:00,27.9,16.6,30.17,North,355,22.0,22.0,62,0.00,,---,0.00,VWS V14.01,2013-12-05 11:18:00,
2013-12-05 05:23:00,27.8,16.5,30.18,North,355,14.0,14.0,62,0.00,,---,0.00,VWS V14.01,2013-12-05 11:23:00,
2013-12-05 05:28:00,27.7,16.4,30.18,NNW,342,26.0,26.0,62,0.00,,---,0.00,VWS V14.01,2013-12-05 11:28:00,
2013-12-05 05:33:00,27.6,16.3,30.18,NNW,329,8.0,9.0,62,0.00,,---,0.00,VWS V14.01,2013-12-05 11:33:00,
2013-12-05 05:38:00,27.6,16.3,30.17,NNW,331,16.0,16.0,62,0.00,,---,0.00,VWS V14.01,2013-12-05 11:38:00,
2013-12-05 05:43:00,27.5,16.2,30.17,NNW,346,16.0,16.0,62,0.00,,---,0.00,VWS V14.01,2013-12-05 11:43:00,
2013-12-05 05:48:00,27.4,16.1,30.17,NW,325,14.0,18.0,62,0.00,,---,0.00,VWS V14.01,2013-12-05 11:48:00,
2013-12-05 05:53:00,27.4,16.5,30.17,North,355,16.0,16.0,63,0.00,,---,0.00,VWS V14.01,2013-12-05 11:53:00,
2013-12-05 05:58:00,27.3,16.4,30.17,NNW,344,20.0,20.0,63,0.00,,---,0.00,VWS V14.01,2013-12-05 11:58:00,
2013-12-05 06:03:00,27.2,15.9,30.18,North,11,8.0,8.0,62,0.00,,---,0.00,VWS V14.01,2013-12-05 12:03:00,
2013-12-05 06:08:00,27.2,16.3,30.18,NNW,344,16.0,16.0,63,0.00,,---,0.00,VWS V14.01,2013-12-05 12:08:00,
2013-12-05 06:13:00,27.1,16.2,30.18,NNW,346,12.0,12.0,63,0.00,,---,0.00,VWS V14.01,2013-12-05 12:13:00,
2013-12-05 06:18:00,27.1,16.6,30.18,North,9,12.0,12.0,64,0.00,,---,0.00,VWS V14.01,2013-12-05 12:18:00,
2013-12-05 06:23:00,27.0,16.5,30.19,NNW,342,8.0,10.0,64,0.00,,---,0.00,VWS V14.01,2013-12-05 12:23:00,
2013-12-05 06:28:00,27.0,16.5,30.19,NNW,348,16.0,16.0,64,0.00,,---,0.00,VWS V14.01,2013-12-05 12:28:00,
2013-12-05 06:33:00,26.8,16.6,30.19,NNW,332,10.0,10.0,65,0.00,,---,0.00,VWS V14.01,2013-12-05 12:33:00,
2013-12-05 06:38:00,26.6,16.4,30.19,North,355,30.0,30.0,65,0.00,,---,0.00,VWS V14.01,2013-12-05 12:38:00,
2013-12-05 06:43:00,26.4,16.6,30.19,NNW,347,20.0,20.0,66,0.00,,---,0.00,VWS V14.01,2013-12-05 12:43:00,
2013-12-05 06:48:00,26.1,16.7,30.18,North,355,14.0,14.0,67,0.00,,---,0.00,VWS V14.01,2013-12-05 12:48:00,
2013-12-05 06:53:00,25.9,16.5,30.18,NNW,338,10.0,10.0,67,0.00,,---,0.00,VWS V14.01,2013-12-05 12:53:00,
2013-12-05 06:58:00,25.8,16.7,30.20,NNW,347,6.0,7.0,68,0.00,,---,0.00,VWS V14.01,2013-12-05 12:58:00,
2013-12-05 07:03:00,25.7,16.6,30.20,North,351,20.0,20.0,68,0.00,,---,0.00,VWS V14.01,2013-12-05 13:03:00,
2013-12-05 07:08:00,25.6,16.2,30.20,NW,325,16.0,16.0,67,0.00,,---,0.00,VWS V14.01,2013-12-05 13:08:00,
2013-12-05 07:13:00,25.6,16.5,30.19,NNW,332,16.0,16.0,68,0.00,,---,0.00,VWS V14.01,2013-12-05 13:13:00,
2013-12-05 07:18:00,25.6,16.5,30.20,North,350,14.0,14.0,68,0.00,,---,0.00,VWS V14.01,2013-12-05 13:18:00,
2013-12-05 07:23:00,25.5,16.4,30.21,NNW,339,16.0,16.0,68,0.00,,---,0.00,VWS V14.01,2013-12-05 13:23:00,
2013-12-05 07:28:00,25.5,16.4,30.22,NNW,343,14.0,14.0,68,0.00,,---,0.00,VWS V14.01,2013-12-05 13:28:00,
2013-12-05 07:33:00,25.4,16.3,30.22,NNW,342,10.0,10.0,68,0.00,,---,0.00,VWS V14.01,2013-12-05 13:33:00,
2013-12-05 07:38:00,25.5,16.8,30.24,NNW,329,6.0,6.0,69,0.00,,---,0.00,VWS V14.01,2013-12-05 13:38:00,
2013-12-05 07:43:00,25.6,16.5,30.23,NNW,340,16.0,16.0,68,0.00,,---,0.00,VWS V14.01,2013-12-05 13:43:00,
2013-12-05 07:48:00,25.6,16.9,30.23,North,10,16.0,16.0,69,0.00,,---,0.00,VWS V14.01,2013-12-05 13:48:00,
2013-12-05 07:53:00,25.6,16.5,30.23,North,360,16.0,16.0,68,0.00,,---,0.00,VWS V14.01,2013-12-05 13:53:00,
2013-12-05 07:58:00,25.6,16.9,30.23,NNW,334,12.0,12.0,69,0.00,,---,0.00,VWS V14.01,2013-12-05 13:58:00,
2013-12-05 08:03:00,25.6,16.9,30.23,North,355,8.0,8.0,69,0.00,,---,0.00,VWS V14.01,2013-12-05 14:03:00,
2013-12-05 08:08:00,25.7,17.0,30.22,NNE,18,18.0,18.0,69,0.00,,---,0.00,VWS V14.01,2013-12-05 14:08:00,
2013-12-05 08:13:00,25.6,16.9,30.19,NE,37,10.0,10.0,69,0.00,,---,0.00,VWS V14.01,2013-12-05 14:13:00,
2013-12-05 08:18:00,25.4,16.7,30.21,North,355,14.0,14.0,69,0.00,,---,0.00,VWS V14.01,2013-12-05 14:18:00,
2013-12-05 08:23:00,25.4,16.7,30.22,North,360,0.0,3.0,69,0.00,,---,0.00,VWS V14.01,2013-12-05 14:23:00,
2013-12-05 08:28:00,25.4,17.0,30.22,NNW,343,8.0,8.0,70,0.00,,---,0.00,VWS V14.01,2013-12-05 14:28:00,
2013-12-05 08:33:00,25.5,17.1,30.22,NNW,343,14.0,14.0,70,0.00,,---,0.00,VWS V14.01,2013-12-05 14:33:00,
2013-12-05 08:38:00,25.4,16.7,30.21,North,9,14.0,14.0,69,0.00,,---,0.00,VWS V14.01,2013-12-05 14:38:00,
2013-12-05 08:43:00,25.3,16.6,30.21,North,355,12.0,12.0,69,0.00,,---,0.00,VWS V14.01,2013-12-05 14:43:00,
2013-12-05 08:48:00,25.3,16.9,30.22,NNW,344,6.0,6.0,70,0.00,,---,0.00,VWS V14.01,2013-12-05 14:48:00,
2013-12-05 08:53:00,25.3,16.9,30.23,NW,324,10.0,10.0,70,0.00,,---,0.00,VWS V14.01,2013-12-05 14:53:00,
2013-12-05 08:58:00,25.4,17.0,30.24,NNW,335,10.0,14.0,70,0.00,,---,0.00,VWS V14.01,2013-12-05 14:58:00,
2013-12-05 09:03:00,25.4,17.0,30.25,NW,323,14.0,14.0,70,0.00,,---,0.00,VWS V14.01,2013-12-05 15:03:00,
2013-12-05 09:08:00,25.4,17.0,30.25,NW,321,10.0,10.0,70,0.00,,---,0.00,VWS V14.01,2013-12-05 15:08:00,
2013-12-05 09:13:00,25.3,16.6,30.25,North,350,30.0,30.0,69,0.00,,---,0.00,VWS V14.01,2013-12-05 15:13:00,
2013-12-05 09:18:00,25.2,16.5,30.24,North,350,14.0,14.0,69,0.00,,---,0.00,VWS V14.01,2013-12-05 15:18:00,
2013-12-05 09:23:00,25.2,16.5,30.24,North,5,18.0,18.0,69,0.00,,---,0.00,VWS V14.01,2013-12-05 15:23:00,
2013-12-05 09:28:00,25.2,16.5,30.22,NNW,346,14.0,14.0,69,0.00,,---,0.00,VWS V14.01,2013-12-05 15:28:00,
2013-12-05 09:33:00,25.2,16.5,30.22,North,351,16.0,16.0,69,0.00,,---,0.00,VWS V14.01,2013-12-05 15:33:00,
2013-12-05 09:38:00,25.1,16.4,30.22,North,5,8.0,8.0,69,0.00,,---,0.00,VWS V14.01,2013-12-05 15:38:00,
2013-12-05 09:43:00,25.1,16.4,30.21,North,9,12.0,12.0,69,0.00,,---,0.00,VWS V14.01,2013-12-05 15:43:00,
2013-12-05 09:48:00,25.1,16.4,30.21,North,5,22.0,22.0,69,0.00,,---,0.00,VWS V14.01,2013-12-05 15:48:00,
2013-12-05 09:53:00,25.2,16.8,30.25,NNW,330,12.0,12.0,70,0.00,,---,0.00,VWS V14.01,2013-12-05 15:53:00,
2013-12-05 09:58:00,25.2,16.5,30.25,North,355,6.0,6.0,69,0.00,,---,0.00,VWS V14.01,2013-12-05 15:58:00,
2013-12-05 10:03:00,25.3,16.9,30.23,NNW,341,16.0,16.0,70,0.00,,---,0.00,VWS V14.01,2013-12-05 16:03:00,
2013-12-05 10:08:00,25.3,16.9,30.26,NNW,329,6.0,6.0,70,0.00,,---,0.00,VWS V14.01,2013-12-05 16:08:00,
2013-12-05 10:13:00,25.4,17.0,30.26,NW,324,14.0,14.0,70,0.00,,---,0.00,VWS V14.01,2013-12-05 16:13:00,
2013-12-05 10:18:00,25.4,17.0,30.28,NNW,332,10.0,10.0,70,0.00,,---,0.00,VWS V14.01,2013-12-05 16:18:00,
2013-12-05 10:23:00,25.5,17.1,30.28,North,355,16.0,16.0,70,0.00,,---,0.00,VWS V14.01,2013-12-05 16:23:00,
2013-12-05 10:28:00,25.5,16.4,30.26,NNW,335,16.0,16.0,68,0.00,,---,0.00,VWS V14.01,2013-12-05 16:28:00,
2013-12-05 10:33:00,25.6,16.5,30.28,NW,326,14.0,14.0,68,0.00,,---,0.00,VWS V14.01,2013-12-05 16:33:00,
2013-12-05 10:38:00,25.6,16.5,30.27,North,355,10.0,10.0,68,0.00,,---,0.00,VWS V14.01,2013-12-05 16:38:00,
2013-12-05 10:43:00,25.7,16.3,30.27,NNW,333,26.0,26.0,67,0.00,,---,0.00,VWS V14.01,2013-12-05 16:43:00,
2013-12-05 10:48:00,25.6,16.2,30.26,North,10,8.0,8.0,67,0.00,,---,0.00,VWS V14.01,2013-12-05 16:48:00,
2013-12-05 10:53:00,25.7,16.3,30.26,North,5,14.0,14.0,67,0.00,,---,0.00,VWS V14.01,2013-12-05 16:53:00,
2013-12-05 10:58:00,25.6,15.8,30.25,NNW,342,22.0,22.0,66,0.00,,---,0.00,VWS V14.01,2013-12-05 16:58:00,
2013-12-05 11:03:00,25.6,16.2,30.27,North,355,14.0,14.0,67,0.00,,---,0.00,VWS V14.01,2013-12-05 17:03:00,
2013-12-05 11:08:00,25.5,16.1,30.27,North,351,14.0,14.0,67,0.00,,---,0.00,VWS V14.01,2013-12-05 17:08:00,
2013-12-05 11:13:00,25.5,16.4,30.27,NNW,338,14.0,14.0,68,0.00,,---,0.00,VWS V14.01,2013-12-05 17:13:00,
2013-12-05 11:18:00,25.6,16.5,30.27,NNW,328,12.0,12.0,68,0.00,,---,0.00,VWS V14.01,2013-12-05 17:18:00,
2013-12-05 11:23:00,25.6,16.2,30.26,North,350,18.0,18.0,67,0.00,,---,0.00,VWS V14.01,2013-12-05 17:23:00,
2013-12-05 11:28:00,25.6,16.5,30.26,NNE,13,12.0,12.0,68,0.00,,---,0.00,VWS V14.01,2013-12-05 17:28:00,
2013-12-05 11:33:00,25.6,16.2,30.26,NNE,15,14.0,14.0,67,0.00,,---,0.00,VWS V14.01,2013-12-05 17:33:00,
2013-12-05 11:38:00,25.5,16.8,30.28,North,355,2.0,3.0,69,0.00,,---,0.00,VWS V14.01,2013-12-05 17:38:00,
2013-12-05 11:43:00,25.6,17.2,30.29,NNW,332,16.0,16.0,70,0.00,,---,0.00,VWS V14.01,2013-12-05 17:43:00,
2013-12-05 11:48:00,25.5,17.4,30.28,NNW,344,14.0,14.0,71,0.00,,---,0.00,VWS V14.01,2013-12-05 17:48:00,
2013-12-05 11:53:00,25.5,17.8,30.28,NNW,347,22.0,22.0,72,0.00,,---,0.00,VWS V14.01,2013-12-05 17:53:00,
2013-12-05 11:58:00,25.5,17.8,30.27,NNW,328,4.0,4.0,72,0.00,,---,0.00,VWS V14.01,2013-12-05 17:58:00,
2013-12-05 12:03:00,25.4,17.6,30.27,North,350,14.0,14.0,72,0.00,,---,0.00,VWS V14.01,2013-12-05 18:03:00,
2013-12-05 12:08:00,25.2,17.5,30.26,NNW,343,6.0,10.0,72,0.00,,---,0.00,VWS V14.01,2013-12-05 18:08:00,
2013-12-05 12:13:00,25.0,17.6,30.26,NNW,336,14.0,14.0,73,0.00,,---,0.00,VWS V14.01,2013-12-05 18:13:00,
2013-12-05 12:18:00,24.8,17.4,30.25,North,9,14.0,14.0,73,0.00,,---,0.00,VWS V14.01,2013-12-05 18:18:00,
2013-12-05 12:23:00,24.7,17.6,30.25,NNW,342,18.0,18.0,74,0.00,,---,0.00,VWS V14.01,2013-12-05 18:23:00,
2013-12-05 12:28:00,24.5,17.7,30.24,North,355,10.0,11.0,75,0.00,,---,0.00,VWS V14.01,2013-12-05 18:28:00,
2013-12-05 12:33:00,24.5,17.7,30.23,WNW,302,20.0,20.0,75,0.00,,---,0.00,VWS V14.01,2013-12-05 18:33:00,
2013-12-05 12:38:00,24.4,17.6,30.23,NNW,347,12.0,12.0,75,0.00,,---,0.00,VWS V14.01,2013-12-05 18:38:00,
2013-12-05 12:43:00,24.4,17.9,30.22,North,360,6.0,6.0,76,0.00,,---,0.00,VWS V14.01,2013-12-05 18:43:00,
2013-12-05 12:48:00,24.4,17.9,30.21,North,355,10.0,10.0,76,0.00,,---,0.00,VWS V14.01,2013-12-05 18:48:00,
2013-12-05 12:53:00,24.4,17.9,30.21,NNE,19,18.0,18.0,76,0.00,,---,0.00,VWS V14.01,2013-12-05 18:53:00,
2013-12-05 12:58:00,24.5,18.0,30.20,North,5,12.0,12.0,76,0.00,,---,0.00,VWS V14.01,2013-12-05 18:58:00,
2013-12-05 13:03:00,24.5,18.0,30.21,NNW,346,8.0,8.0,76,0.00,,---,0.00,VWS V14.01,2013-12-05 19:03:00,
2013-12-05 13:08:00,24.6,18.1,30.21,North,351,6.0,7.0,76,0.00,,---,0.00,VWS V14.01,2013-12-05 19:08:00,
2013-12-05 13:13:00,24.7,18.5,30.23,NNW,340,6.0,6.0,77,0.00,,---,0.00,VWS V14.01,2013-12-05 19:13:00,
2013-12-05 13:18:00,24.8,18.9,30.23,North,355,18.0,18.0,78,0.00,,---,0.00,VWS V14.01,2013-12-05 19:18:00,
2013-12-05 13:23:00,24.8,18.6,30.23,North,355,6.0,7.0,77,0.00,,---,0.00,VWS V14.01,2013-12-05 19:23:00,
2013-12-05 13:28:00,24.7,18.5,30.23,NNW,336,12.0,12.0,77,0.00,,---,0.00,VWS V14.01,2013-12-05 19:28:00,
2013-12-05 13:33:00,24.8,18.9,30.23,NNW,347,18.0,18.0,78,0.00,,---,0.00,VWS V14.01,2013-12-05 19:33:00,
2013-12-05 13:38:00,24.7,18.5,30.23,NNW,346,4.0,10.0,77,0.00,,---,0.00,VWS V14.01,2013-12-05 19:38:00,
2013-12-05 13:43:00,24.6,18.4,30.23,NNW,344,12.0,12.0,77,0.00,,---,0.00,VWS V14.01,2013-12-05 19:43:00,
2013-12-05 13:48:00,24.7,18.8,30.23,NW,323,10.0,10.0,78,0.00,,---,0.00,VWS V14.01,2013-12-05 19:48:00,
2013-12-05 13:53:00,24.7,18.8,30.24,NNW,346,14.0,14.0,78,0.00,,---,0.00,VWS V14.01,2013-12-05 19:53:00,
2013-12-05 13:58:00,24.6,18.4,30.24,NW,320,10.0,10.0,77,0.00,,---,0.00,VWS V14.01,2013-12-05 19:58:00,
2013-12-05 14:03:00,24.7,18.8,30.22,NNE,22,18.0,18.0,78,0.00,,---,0.00,VWS V14.01,2013-12-05 20:03:00,
2013-12-05 14:08:00,24.6,19.0,30.22,NW,324,4.0,10.0,79,0.00,,---,0.00,VWS V14.01,2013-12-05 20:08:00,
2013-12-05 14:13:00,24.5,19.2,30.22,North,350,16.0,16.0,80,0.00,,---,0.00,VWS V14.01,2013-12-05 20:13:00,
2013-12-05 14:18:00,24.4,19.4,30.22,NNW,340,16.0,16.0,81,0.00,,---,0.00,VWS V14.01,2013-12-05 20:18:00,
2013-12-05 14:23:00,24.3,19.6,30.22,North,355,8.0,8.0,82,0.00,,---,0.00,VWS V14.01,2013-12-05 20:23:00,
2013-12-05 14:28:00,24.2,19.8,30.23,North,355,12.0,12.0,83,0.00,,---,0.00,VWS V14.01,2013-12-05 20:28:00,
2013-12-05 14:33:00,24.1,19.7,30.24,NNW,336,4.0,4.0,83,0.00,,---,0.00,VWS V14.01,2013-12-05 20:33:00,
2013-12-05 14:38:00,24.0,19.6,30.24,NNW,337,10.0,10.0,83,0.00,,---,0.00,VWS V14.01,2013-12-05 20:38:00,
2013-12-05 14:43:00,24.0,19.6,30.24,North,360,14.0,14.0,83,0.00,,---,0.00,VWS V14.01,2013-12-05 20:43:00,
2013-12-05 14:48:00,24.0,19.6,30.24,NNE,20,10.0,10.0,83,0.00,,---,0.00,VWS V14.01,2013-12-05 20:48:00,
2013-12-05 14:53:00,24.0,19.6,30.24,North,355,6.0,6.0,83,0.00,,---,0.00,VWS V14.01,2013-12-05 20:53:00,
2013-12-05 14:58:00,24.0,19.6,30.23,North,10,8.0,8.0,83,0.00,,---,0.00,VWS V14.01,2013-12-05 20:58:00,
2013-12-05 15:03:00,24.0,19.9,30.23,North,355,10.0,10.0,84,0.00,,---,0.00,VWS V14.01,2013-12-05 21:03:00,
2013-12-05 15:08:00,24.0,19.9,30.23,North,355,4.0,5.0,84,0.00,,---,0.00,VWS V14.01,2013-12-05 21:08:00,
2013-12-05 15:13:00,24.0,19.9,30.23,North,360,2.0,2.0,84,0.00,,---,0.00,VWS V14.01,2013-12-05 21:13:00,
2013-12-05 15:18:00,24.1,20.2,30.24,NNW,345,6.0,6.0,85,0.00,,---,0.00,VWS V14.01,2013-12-05 21:18:00,
2013-12-05 15:23:00,24.0,20.1,30.24,NNW,343,12.0,12.0,85,0.00,,---,0.00,VWS V14.01,2013-12-05 21:23:00,
2013-12-05 15:28:00,24.0,20.1,30.25,North,360,12.0,12.0,85,0.00,,---,0.00,VWS V14.01,2013-12-05 21:28:00,
2013-12-05 15:33:00,23.9,20.1,30.24,North,360,8.0,8.0,85,0.00,,---,0.00,VWS V14.01,2013-12-05 21:33:00,
2013-12-05 15:38:00,23.9,20.1,30.24,NNE,18,8.0,8.0,85,0.00,,---,0.00,VWS V14.01,2013-12-05 21:38:00,
2013-12-05 15:43:00,23.8,20.0,30.24,NNE,12,8.0,8.0,85,0.00,,---,0.00,VWS V14.01,2013-12-05 21:43:00,
2013-12-05 15:48:00,23.8,20.2,30.24,NNE,21,6.0,6.0,86,0.00,,---,0.00,VWS V14.01,2013-12-05 21:48:00,
2013-12-05 15:53:00,23.9,20.3,30.24,North,5,8.0,8.0,86,0.00,,---,0.00,VWS V14.01,2013-12-05 21:53:00,
2013-12-05 15:58:00,23.9,20.6,30.25,North,5,0.0,2.0,87,0.00,,---,0.00,VWS V14.01,2013-12-05 21:58:00,
2013-12-05 16:03:00,23.9,20.6,30.26,North,5,12.0,12.0,87,0.00,,---,0.00,VWS V14.01,2013-12-05 22:03:00,
2013-12-05 16:09:00,23.8,20.5,30.26,NNE,19,10.0,10.0,87,0.00,,---,0.00,VWS V14.01,2013-12-05 22:09:00,
2013-12-05 16:14:00,23.8,20.5,30.26,North,360,2.0,4.0,87,0.00,,---,0.00,VWS V14.01,2013-12-05 22:14:00,
2013-12-05 16:19:00,23.8,20.5,30.26,North,5,6.0,6.0,87,0.00,,---,0.00,VWS V14.01,2013-12-05 22:19:00,
2013-12-05 16:24:00,23.7,20.4,30.26,North,5,8.0,8.0,87,0.00,,---,0.00,VWS V14.01,2013-12-05 22:24:00,
2013-12-05 16:29:00,23.6,20.3,30.26,NNE,17,8.0,8.0,87,0.00,,---,0.00,VWS V14.01,2013-12-05 22:29:00,
2013-12-05 16:34:00,23.5,20.2,30.24,NNE,16,10.0,10.0,87,0.00,,---,0.00,VWS V14.01,2013-12-05 22:34:00,
2013-12-05 16:39:00,23.5,20.5,30.25,North,5,6.0,6.0,88,0.00,,---,0.00,VWS V14.01,2013-12-05 22:39:00,
2013-12-05 16:44:00,23.4,20.4,30.24,NNE,20,8.0,8.0,88,0.00,,---,0.00,VWS V14.01,2013-12-05 22:44:00,
2013-12-05 16:49:00,23.4,20.4,30.25,NNE,18,4.0,5.0,88,0.00,,---,0.00,VWS V14.01,2013-12-05 22:49:00,
2013-12-05 16:54:00,23.3,20.3,30.24,North,355,12.0,12.0,88,0.00,,---,0.00,VWS V14.01,2013-12-05 22:54:00,
2013-12-05 16:59:00,23.3,20.3,30.26,North,355,8.0,8.0,88,0.00,,---,0.00,VWS V14.01,2013-12-05 22:59:00,
2013-12-05 17:04:00,23.3,20.3,30.25,NNE,19,14.0,14.0,88,0.00,,---,0.00,VWS V14.01,2013-12-05 23:04:00,
2013-12-05 17:09:00,23.3,20.3,30.25,North,9,12.0,12.0,88,0.00,,---,0.00,VWS V14.01,2013-12-05 23:09:00,
2013-12-05 17:14:00,23.3,20.3,30.25,North,11,6.0,6.0,88,0.00,,---,0.00,VWS V14.01,2013-12-05 23:14:00,
2013-12-05 17:19:00,23.3,20.3,30.25,North,355,12.0,12.0,88,0.00,,---,0.00,VWS V14.01,2013-12-05 23:19:00,
2013-12-05 17:24:00,23.3,20.3,30.26,North,5,14.0,14.0,88,0.00,,---,0.00,VWS V14.01,2013-12-05 23:24:00,
2013-12-05 17:29:00,23.3,20.3,30.26,NNW,343,12.0,12.0,88,0.00,,---,0.00,VWS V14.01,2013-12-05 23:29:00,
2013-12-05 17:34:00,23.3,20.3,30.26,North,360,10.0,10.0,88,0.00,,---,0.00,VWS V14.01,2013-12-05 23:34:00,
2013-12-05 17:39:00,23.2,20.2,30.26,NNW,343,6.0,9.0,88,0.00,,---,0.00,VWS V14.01,2013-12-05 23:39:00,
2013-12-05 17:44:00,23.1,20.1,30.26,North,9,6.0,9.0,88,0.00,,---,0.00,VWS V14.01,2013-12-05 23:44:00,
2013-12-05 17:49:00,23.2,20.2,30.26,North,11,4.0,8.0,88,0.00,,---,0.00,VWS V14.01,2013-12-05 23:49:00,
2013-12-05 17:54:00,23.2,20.2,30.26,North,355,12.0,12.0,88,0.00,,---,0.00,VWS V14.01,2013-12-05 23:54:00,
2013-12-05 17:59:00,23.3,20.3,30.25,NNE,24,16.0,16.0,88,0.00,,---,0.00,VWS V14.01,2013-12-05 23:59:00,
2013-12-05 18:03:00,23.2,20.2,30.26,NNE,22,8.0,9.0,88,0.00,,---,0.00,VWS V14.01,2013-12-06 00:03:00,
2013-12-05 18:09:00,23.2,20.2,30.25,North,355,10.0,10.0,88,0.00,,---,0.00,VWS V14.01,2013-12-06 00:09:00,
2013-12-05 18:14:00,23.1,20.1,30.26,NNE,14,12.0,12.0,88,0.00,,---,0.00,VWS V14.01,2013-12-06 00:14:00,
2013-12-05 18:19:00,23.1,20.1,30.26,North,5,6.0,9.0,88,0.00,,---,0.00,VWS V14.01,2013-12-06 00:19:00,
2013-12-05 18:24:00,23.0,20.0,30.27,NNW,348,14.0,14.0,88,0.00,,---,0.00,VWS V14.01,2013-12-06 00:24:00,
2013-12-05 18:29:00,23.1,20.1,30.26,NNW,337,8.0,8.0,88,0.00,,---,0.00,VWS V14.01,2013-12-06 00:29:00,
2013-12-05 18:33:00,23.1,20.1,30.25,North,5,6.0,6.0,88,0.00,,---,0.00,VWS V14.01,2013-12-06 00:33:00,
2013-12-05 18:38:00,23.1,20.4,30.26,North,351,14.0,14.0,89,0.00,,---,0.00,VWS V14.01,2013-12-06 00:38:00,
2013-12-05 18:43:00,23.1,20.4,30.26,North,355,8.0,8.0,89,0.00,,---,0.00,VWS V14.01,2013-12-06 00:43:00,
2013-12-05 18:48:00,23.0,20.2,30.26,North,355,24.0,24.0,89,0.00,,---,0.00,VWS V14.01,2013-12-06 00:48:00,
2013-12-05 18:53:00,23.0,20.2,30.26,North,355,4.0,5.0,89,0.00,,---,0.00,VWS V14.01,2013-12-06 00:53:00,
2013-12-05 18:58:00,22.9,20.1,30.27,North,5,18.0,18.0,89,0.00,,---,0.00,VWS V14.01,2013-12-06 00:58:00,
2013-12-05 19:04:00,22.9,20.1,30.26,NNE,15,18.0,18.0,89,0.00,,---,0.00,VWS V14.01,2013-12-06 01:04:00,
2013-12-05 19:09:00,22.8,20.0,30.26,NNW,342,6.0,6.0,89,0.00,,---,0.00,VWS V14.01,2013-12-06 01:09:00,
2013-12-05 19:14:00,22.8,20.0,30.26,North,350,8.0,8.0,89,0.00,,---,0.00,VWS V14.01,2013-12-06 01:14:00,
2013-12-05 19:19:00,22.8,20.0,30.27,NNW,331,4.0,6.0,89,0.00,,---,0.00,VWS V14.01,2013-12-06 01:19:00,
2013-12-05 19:24:00,22.8,20.0,30.27,NNW,345,8.0,8.0,89,0.00,,---,0.00,VWS V14.01,2013-12-06 01:24:00,
2013-12-05 19:29:00,22.8,20.0,30.27,NNW,333,8.0,8.0,89,0.00,,---,0.00,VWS V14.01,2013-12-06 01:29:00,
2013-12-05 19:34:00,22.7,20.2,30.26,NNW,335,8.0,8.0,90,0.00,,---,0.00,VWS V14.01,2013-12-06 01:34:00,
2013-12-05 19:39:00,22.6,19.9,30.28,North,360,4.0,4.0,89,0.00,,---,0.00,VWS V14.01,2013-12-06 01:39:00,
2013-12-05 19:44:00,22.7,20.2,30.29,NNW,341,8.0,8.0,90,0.00,,---,0.00,VWS V14.01,2013-12-06 01:44:00,
2013-12-05 19:49:00,22.6,20.1,30.28,NNW,331,12.0,12.0,90,0.00,,---,0.00,VWS V14.01,2013-12-06 01:49:00,
2013-12-05 19:54:00,22.6,20.1,30.28,North,355,2.0,4.0,90,0.00,,---,0.00,VWS V14.01,2013-12-06 01:54:00,
2013-12-05 19:59:00,22.5,20.0,30.28,NNW,342,14.0,14.0,90,0.00,,---,0.00,VWS V14.01,2013-12-06 01:59:00,
2013-12-05 20:04:00,22.5,19.8,30.27,NNE,17,20.0,20.0,89,0.00,,---,0.00,VWS V14.01,2013-12-06 02:04:00,
2013-12-05 20:09:00,22.5,19.8,30.27,North,5,6.0,9.0,89,0.00,,---,0.00,VWS V14.01,2013-12-06 02:09:00,
2013-12-05 20:14:00,22.5,19.8,30.27,North,11,16.0,16.0,89,0.00,,---,0.00,VWS V14.01,2013-12-06 02:14:00,
2013-12-05 20:19:00,22.5,19.8,30.26,NNW,343,26.0,26.0,89,0.00,,---,0.00,VWS V14.01,2013-12-06 02:19:00,
2013-12-05 20:24:00,22.4,19.7,30.27,North,355,6.0,7.0,89,0.00,,---,0.00,VWS V14.01,2013-12-06 02:24:00,
2013-12-05 20:29:00,22.4,19.7,30.27,North,351,22.0,22.0,89,0.00,,---,0.00,VWS V14.01,2013-12-06 02:29:00,
2013-12-05 20:34:00,22.4,19.7,30.27,NNE,21,2.0,8.0,89,0.00,,---,0.00,VWS V14.01,2013-12-06 02:34:00,
2013-12-05 20:39:00,22.3,19.8,30.27,NNW,331,16.0,16.0,90,0.00,,---,0.00,VWS V14.01,2013-12-06 02:39:00,
2013-12-05 20:44:00,22.3,19.8,30.27,NNW,346,10.0,10.0,90,0.00,,---,0.00,VWS V14.01,2013-12-06 02:44:00,
2013-12-05 20:49:00,22.2,19.7,30.28,NNW,347,16.0,16.0,90,0.00,,---,0.00,VWS V14.01,2013-12-06 02:49:00,
2013-12-05 20:54:00,22.2,19.7,30.28,NNW,342,14.0,14.0,90,0.00,,---,0.00,VWS V14.01,2013-12-06 02:54:00,
2013-12-05 20:59:00,22.2,19.7,30.29,North,360,12.0,12.0,90,0.00,,---,0.00,VWS V14.01,2013-12-06 02:59:00,
2013-12-05 21:04:00,22.2,19.7,30.29,NNW,348,6.0,6.0,90,0.00,,---,0.00,VWS V14.01,2013-12-06 03:04:00,
2013-12-05 21:09:00,22.2,19.7,30.28,NNW,347,10.0,10.0,90,0.00,,---,0.00,VWS V14.01,2013-12-06 03:09:00,
2013-12-05 21:14:00,22.2,19.7,30.29,NNW,346,14.0,14.0,90,0.00,,---,0.00,VWS V14.01,2013-12-06 03:14:00,
2013-12-05 21:19:00,22.1,19.6,30.29,NNW,331,8.0,8.0,90,0.00,,---,0.00,VWS V14.01,2013-12-06 03:19:00,
2013-12-05 21:24:00,22.1,19.6,30.29,North,9,12.0,12.0,90,0.00,,---,0.00,VWS V14.01,2013-12-06 03:24:00,
2013-12-05 21:29:00,22.1,19.6,30.29,NNW,347,12.0,12.0,90,0.00,,---,0.00,VWS V14.01,2013-12-06 03:29:00,
2013-12-05 21:34:00,22.0,19.5,30.30,North,5,22.0,22.0,90,0.00,,---,0.00,VWS V14.01,2013-12-06 03:34:00,
2013-12-05 21:39:00,22.0,19.5,30.31,NNW,342,14.0,14.0,90,0.00,,---,0.00,VWS V14.01,2013-12-06 03:39:00,
2013-12-05 21:44:00,22.0,19.5,30.31,North,355,14.0,14.0,90,0.00,,---,0.00,VWS V14.01,2013-12-06 03:44:00,
2013-12-05 21:49:00,22.0,19.5,30.29,NNW,343,10.0,10.0,90,0.00,,---,0.00,VWS V14.01,2013-12-06 03:49:00,
2013-12-05 21:54:00,21.9,19.4,30.29,North,355,6.0,10.0,90,0.00,,---,0.00,VWS V14.01,2013-12-06 03:54:00,
2013-12-05 21:59:00,21.9,19.4,30.29,NNE,15,10.0,10.0,90,0.00,,---,0.00,VWS V14.01,2013-12-06 03:59:00,
2013-12-05 22:04:00,21.9,19.4,30.30,North,355,6.0,7.0,90,0.00,,---,0.00,VWS V14.01,2013-12-06 04:04:00,
2013-12-05 22:09:00,21.9,19.4,30.30,North,360,8.0,8.0,90,0.00,,---,0.00,VWS V14.01,2013-12-06 04:09:00,
2013-12-05 22:14:00,21.9,19.4,30.29,North,355,8.0,8.0,90,0.00,,---,0.00,VWS V14.01,2013-12-06 04:14:00,
2013-12-05 22:19:00,21.9,19.4,30.30,NNW,346,18.0,18.0,90,0.00,,---,0.00,VWS V14.01,2013-12-06 04:19:00,
2013-12-05 22:24:00,21.8,19.3,30.30,NNW,340,12.0,12.0,90,0.00,,---,0.00,VWS V14.01,2013-12-06 04:24:00,
2013-12-05 22:29:00,21.8,19.3,30.31,North,349,12.0,12.0,90,0.00,,---,0.00,VWS V14.01,2013-12-06 04:29:00,
2013-12-05 22:34:00,21.8,19.3,30.30,North,360,22.0,22.0,90,0.00,,---,0.00,VWS V14.01,2013-12-06 04:34:00,
2013-12-05 22:39:00,21.8,19.3,30.30,North,350,16.0,16.0,90,0.00,,---,0.00,VWS V14.01,2013-12-06 04:39:00,
2013-12-05 22:44:00,21.8,19.1,30.33,North,5,12.0,12.0,89,0.00,,---,0.00,VWS V14.01,2013-12-06 04:44:00,
2013-12-05 22:49:00,22.0,19.3,30.33,North,5,12.0,12.0,89,0.00,,---,0.00,VWS V14.01,2013-12-06 04:49:00,
2013-12-05 22:54:00,22.0,19.3,30.33,North,355,10.0,10.0,89,0.00,,---,0.00,VWS V14.01,2013-12-06 04:54:00,
2013-12-05 22:59:00,21.9,18.9,30.32,North,355,10.0,10.0,88,0.00,,---,0.00,VWS V14.01,2013-12-06 04:59:00,
2013-12-05 23:01:00,21.9,18.9,30.32,NNW,344,14.0,14.0,88,0.00,,---,0.00,VWS V14.01,2013-12-06 05:01:00,
2013-12-05 23:06:00,21.9,18.9,30.32,NNW,339,16.0,16.0,88,0.00,,---,0.00,VWS V14.01,2013-12-06 05:06:00,
2013-12-05 23:11:00,21.9,18.9,30.31,NNE,13,8.0,8.0,88,0.00,,---,0.00,VWS V14.01,2013-12-06 05:11:00,
2013-12-05 23:16:00,21.8,19.1,30.31,North,355,16.0,16.0,89,0.00,,---,0.00,VWS V14.01,2013-12-06 05:16:00,
2013-12-05 23:21:00,21.7,19.0,30.31,NNW,344,10.0,10.0,89,0.00,,---,0.00,VWS V14.01,2013-12-06 05:21:00,
2013-12-05 23:26:00,21.6,18.9,30.29,North,5,4.0,10.0,89,0.00,,---,0.00,VWS V14.01,2013-12-06 05:26:00,
2013-12-05 23:31:00,21.6,19.1,30.30,North,355,10.0,10.0,90,0.00,,---,0.00,VWS V14.01,2013-12-06 05:31:00,
2013-12-05 23:36:00,21.6,19.1,30.31,North,349,20.0,20.0,90,0.00,,---,0.00,VWS V14.01,2013-12-06 05:36:00,
2013-12-05 23:41:00,21.6,19.1,30.31,NNW,343,14.0,14.0,90,0.00,,---,0.00,VWS V14.01,2013-12-06 05:41:00,
2013-12-05 23:46:00,21.6,19.1,30.32,North,349,6.0,7.0,90,0.00,,---,0.00,VWS V14.01,2013-12-06 05:46:00,
2013-12-05 23:51:00,21.6,19.4,30.32,NNW,336,6.0,8.0,91,0.00,,---,0.00,VWS V14.01,2013-12-06 05:51:00,
2013-12-05 23:56:00,21.7,19.5,30.31,NNW,346,8.0,9.0,91,0.00,,---,0.00,VWS V14.01,2013-12-06 05:56:00,